Patuxent River, MD

11:55 PM EDT on September 20, 2017 (GMT -0400)
Patuxent River Naval Air Station

Weather History for KNHK - April, 2014

Change the Weather History Date:

Tuesday, April 15, 2014

  Actual Average Record
Temperature  
Mean Temperature 53 °F -  
Max Temperature 70 °F 60 °F 84 °F (2012)
Min Temperature 36 °F 46 °F 34 °F (1981)
Degree Days  
Heating Degree Days 12    
Growing Degree Days 3 (Base 50)    
Moisture  
Dew Point 50 °F    
Average Humidity 85    
Maximum Humidity 93    
Minimum Humidity 73    
Precipitation  
Precipitation 0.74 in - - ()
Sea Level Pressure  
Sea Level Pressure 29.75 in    
Wind  
Wind Speed 13 mph (SSW)    
Max Wind Speed 30 mph    
Max Gust Speed 37 mph    
Visibility 8 miles    
Events Rain , Snow    
Averages and records for this station are not official NWS values.
T = Trace of Precipitation, MM = Missing Value Source: NWS Daily Summary

Daily Weather History Graph

Daily Weather History Graph

Search for Another Location

Airport or City:

Trip Planner

Search our weather history database for the weather conditions in past years. The results will help you decide how hot, cold, wet, or windy it might be!

Date:

Astronomy

Apr. 15, 2014 Rise Set
Actual Time 6:29 AM EDT 7:42 PM EDT
Civil Twilight 6:02 AM EDT 8:09 PM EDT
Nautical Twilight 5:30 AM EDT 8:42 PM EDT
Astronomical Twilight 4:56 AM EDT 9:16 PM EDT
Moon 8:20 PM EDT (4/15) 6:36 AM EDT (4/15)
Length of Visible Light 14h 06m
Length of Day
13h 12m
Full, 100% of the Moon is Illuminated
Apr 15
Full
Apr 22
Last Quarter
Apr 29
New
May 6
First Quarter
May 14
Full

Hourly Weather History & Observations

Time (EDT) Temp. Windchill Dew Point Humidity Pressure Visibility Wind Dir Wind Speed Gust Speed Precip Events Conditions
12:52 AM 63.0 °F - 55.9 °F 78% 29.84 in 10.0 mi South 8.1 mph - 0.00 in Rain Light Rain
1:52 AM 57.9 °F - 55.0 °F 90% 29.81 in 10.0 mi SE 8.1 mph - 0.00 in   Mostly Cloudy
2:52 AM 57.0 °F - 55.0 °F 93% 29.78 in 10.0 mi SE 10.4 mph - N/A   Clear
3:52 AM 57.0 °F - 55.0 °F 93% 29.76 in 8.0 mi SE 11.5 mph - N/A   Overcast
4:01 AM 55.9 °F - 54.0 °F 93% 29.76 in 6.0 mi SSE 10.4 mph - N/A   Overcast
4:25 AM 57.0 °F - 55.0 °F 93% 29.75 in 8.0 mi SE 9.2 mph - N/A   Overcast
4:52 AM 57.0 °F - 55.0 °F 93% 29.74 in 10.0 mi ESE 6.9 mph - N/A   Overcast
4:58 AM 57.0 °F - 55.0 °F 93% 29.74 in 10.0 mi ESE 8.1 mph - N/A   Overcast
5:52 AM 66.0 °F - 61.0 °F 84% 29.72 in 10.0 mi SSE 10.4 mph - N/A   Overcast
6:22 AM 63.0 °F - 59.0 °F 87% 29.71 in 10.0 mi SSE 6.9 mph - N/A   Overcast
6:52 AM 64.9 °F - 61.0 °F 87% 29.70 in 10.0 mi SSE 8.1 mph - N/A   Overcast
7:05 AM 64.9 °F - 61.0 °F 87% 29.69 in 10.0 mi SSE 8.1 mph - N/A   Mostly Cloudy
7:29 AM 66.0 °F - 61.0 °F 84% 29.69 in 10.0 mi SSE 12.7 mph - 0.00 in Rain Light Rain
7:52 AM 66.0 °F - 62.1 °F 87% 29.68 in 6.0 mi SSE 15.0 mph - 0.00 in Rain Light Rain
8:52 AM 64.9 °F - 62.1 °F 90% 29.66 in 5.0 mi SSE 12.7 mph 19.6 mph 0.01 in Rain Light Rain
9:52 AM 64.0 °F - 61.0 °F 90% 29.63 in 4.0 mi SSE 11.5 mph - 0.04 in Rain Light Rain
10:52 AM 68.0 °F - 64.0 °F 87% 29.62 in 7.0 mi South 15.0 mph 25.3 mph 0.01 in   Overcast
11:52 AM 70.0 °F - 64.0 °F 81% 29.61 in 10.0 mi South 13.8 mph 24.2 mph N/A   Overcast
12:52 PM 69.1 °F - 62.1 °F 78% 29.62 in 10.0 mi South 13.8 mph 20.7 mph N/A   Overcast
1:52 PM 69.1 °F - 61.0 °F 75% 29.60 in 10.0 mi South 11.5 mph 23.0 mph N/A   Overcast
2:20 PM 68.0 °F - 60.1 °F 76% 29.60 in 10.0 mi South 13.8 mph 19.6 mph 0.00 in Rain Light Rain
2:52 PM 68.0 °F - 60.1 °F 76% 29.60 in 10.0 mi South 10.4 mph - 0.00 in   Overcast
3:52 PM 69.1 °F - 60.1 °F 73% 29.59 in 10.0 mi South 10.4 mph - N/A   Overcast
4:11 PM 69.1 °F - 60.1 °F 73% 29.62 in 10.0 mi WNW 17.3 mph 29.9 mph 0.00 in Rain Light Rain
4:52 PM 53.1 °F - 48.9 °F 86% 29.66 in 10.0 mi NNW 18.4 mph - 0.01 in Rain Light Rain
5:00 PM 52.0 °F - 48.0 °F 86% 29.65 in 7.0 mi North 21.9 mph 27.6 mph 0.01 in Rain Light Rain
5:16 PM 50.0 °F - 46.0 °F 86% 29.67 in 5.0 mi NNW 23.0 mph 32.2 mph 0.04 in Rain Light Rain
5:52 PM 46.9 °F - 43.0 °F 86% 29.73 in 7.0 mi NNW 29.9 mph 35.7 mph 0.09 in Rain Light Rain
6:05 PM 46.9 °F - 42.1 °F 83% 29.71 in 5.0 mi NNW 28.8 mph 36.8 mph 0.02 in Rain Light Rain
6:27 PM 46.0 °F 38.3 °F 42.1 °F 86% 29.74 in 10.0 mi NNW 20.7 mph 32.2 mph 0.02 in   Overcast
6:38 PM 46.0 °F 38.0 °F 42.1 °F 86% 29.76 in 10.0 mi NNW 21.9 mph 31.1 mph 0.02 in Rain Light Rain
6:49 PM 46.4 °F 38.7 °F 42.8 °F 87% 29.76 in 3.0 mi NNW 20.7 mph 35.7 mph 0.04 in Rain Rain
6:52 PM 46.0 °F 37.8 °F 42.1 °F 86% 29.77 in 2.5 mi NNW 23.0 mph 35.7 mph 0.05 in Rain Rain
7:35 PM 44.1 °F 35.0 °F 39.0 °F 82% 29.82 in 3.0 mi NNW 24.2 mph 31.1 mph 0.04 in Rain Light Rain
7:52 PM 43.0 °F 33.1 °F 39.0 °F 86% 29.84 in 3.0 mi NNW 26.5 mph 34.5 mph 0.06 in Rain Light Rain
8:52 PM 42.1 °F 32.3 °F 37.0 °F 82% 29.87 in 4.0 mi North 24.2 mph 34.5 mph 0.06 in Rain Light Rain
9:52 PM 39.9 °F 29.7 °F 36.0 °F 86% 29.94 in 3.0 mi NNW 23.0 mph 32.2 mph 0.21 in Rain Heavy Rain
9:59 PM 37.9 °F 26.8 °F 34.0 °F 86% 29.94 in 4.0 mi NNW 24.2 mph 29.9 mph 0.04 in Rain Rain
10:52 PM 36.0 °F 25.0 °F 32.0 °F 86% 30.00 in 4.0 mi NNW 20.7 mph 25.3 mph 0.16 in Rain , Snow Rain
11:07 PM 36.0 °F 25.6 °F 33.1 °F 89% 29.99 in 8.0 mi NNW 18.4 mph 26.5 mph 0.01 in   Overcast
11:14 PM 36.0 °F 25.0 °F 33.1 °F 89% 30.00 in 8.0 mi NNW 20.7 mph - 0.01 in   Overcast
11:38 PM 36.0 °F 26.3 °F 32.0 °F 86% 29.98 in 8.0 mi NNW 16.1 mph - 0.04 in Rain Light Rain
11:52 PM 37.9 °F 28.5 °F 32.0 °F 79% 30.01 in 10.0 mi NNW 17.3 mph 26.5 mph 0.04 in   Overcast